IRIDIUM 106 1 41917U 17003A 26145.35095182 .00000053 00000+0 11975-4 0 9998 2 41917 86.3950 98.1025 0002130 76.3739 283.7694 14.34217885489936 IRIDIUM 103 1 41918U 17003B 26145.33826763 .00000026 00000+0 23359-5 0 9994 2 41918 86.3949 98.0075 0002589 85.6621 274.4870 14.34217749489954 IRIDIUM 109 1 41919U 17003C 26145.41437811 .00000062 00000+0 14959-4 0 9991 2 41919 86.3952 98.0350 0002351 85.9284 274.2181 14.34217966489932 IRIDIUM 102 1 41920U 17003D 26145.38266293 .00000228 00000+0 74196-4 0 9996 2 41920 86.3949 97.9721 0002256 85.7500 274.3954 14.34218516490015 IRIDIUM 105 1 41921U 17003E 26145.27153891 .00000243 00000+0 79565-4 0 9996 2 41921 86.3971 66.4490 0002412 90.0029 270.1443 14.34218191491853 IRIDIUM 104 1 41922U 17003F 26145.39535051 .00000156 00000+0 48765-4 0 9993 2 41922 86.3951 98.0090 0002540 89.3589 270.7897 14.34217968490009 IRIDIUM 114 1 41923U 17003G 26145.33192441 .00000057 00000+0 13184-4 0 9997 2 41923 86.3950 98.0189 0002462 86.4384 273.7093 14.34217985489976 IRIDIUM 108 1 41924U 17003H 26145.49975088 -.00000006 00000+0 -93272-5 0 9994 2 41924 86.3965 66.2451 0002045 85.0493 275.0936 14.34217435491856 IRIDIUM 112 1 41925U 17003J 26145.38900823 .00000037 00000+0 62949-5 0 9997 2 41925 86.3946 97.8381 0002367 87.9718 272.1749 14.34217757490009 IRIDIUM 111 1 41926U 17003K 26145.37632477 .00000187 00000+0 59777-4 0 9994 2 41926 86.3952 97.9152 0002868 82.1466 278.0055 14.34210433489981 IRIDIUM 113 1 42803U 17039A 26145.49582573 .00000048 00000+0 10031-4 0 9998 2 42803 86.3962 331.6681 0002326 91.7409 268.4053 14.34217551467934 IRIDIUM 123 1 42804U 17039B 26145.32799587 .00000161 00000+0 50366-4 0 9997 2 42804 86.3981 3.1941 0002147 82.0410 278.1030 14.34218441466674 IRIDIUM 120 1 42805U 17039C 26145.07088191 .00000060 00000+0 14343-4 0 9995 2 42805 86.3951 331.6312 0002030 87.7643 272.3786 14.34218743467865 IRIDIUM 115 1 42806U 17039D 26145.23939323 .00000009 00000+0 -32725-5 0 9995 2 42806 86.4483 331.6864 0002105 82.4380 277.7060 14.43280340470952 IRIDIUM 118 1 42807U 17039E 26145.08063582 .00000044 00000+0 85441-5 0 9995 2 42807 86.3985 3.2957 0002233 86.7802 273.3649 14.34217856466639 IRIDIUM 117 1 42808U 17039F 26145.30896904 .00000071 00000+0 18248-4 0 9993 2 42808 86.3983 3.1580 0002254 83.8627 276.2825 14.34218103466695 IRIDIUM 126 1 42809U 17039G 26145.33433889 .00000055 00000+0 12595-4 0 9997 2 42809 86.3986 3.1983 0002310 86.6412 273.5048 14.34217095466676 IRIDIUM 124 1 42810U 17039H 26145.38120514 -.00000008 00000+0 -83909-5 0 9990 2 42810 86.4458 299.8991 0002072 91.1231 269.0208 14.43279801471825 IRIDIUM 128 1 42811U 17039J 26145.39484596 .00000010 00000+0 -35551-5 0 9997 2 42811 86.3987 34.6776 0002079 80.0990 280.0440 14.34217689466713 IRIDIUM 121 1 42812U 17039K 26145.35337362 .00000218 00000+0 70815-4 0 9992 2 42812 86.3986 3.2179 0002080 86.4930 273.6503 14.34219243466556 IRIDIUM 133 1 42955U 17061A 26145.42655806 .00000097 00000+0 27455-4 0 9996 2 42955 86.3989 34.7817 0002249 84.1255 276.0197 14.34218468451511 IRIDIUM 100 1 42956U 17061B 26145.42021632 .00000032 00000+0 44758-5 0 9996 2 42956 86.3988 34.7034 0002189 84.2470 275.8976 14.34217827451515 IRIDIUM 122 1 42957U 17061C 26145.38850368 .00000057 00000+0 13128-4 0 9991 2 42957 86.3988 34.7167 0002296 83.6010 276.5447 14.34217680451513 IRIDIUM 129 1 42958U 17061D 26145.41387110 .00000229 00000+0 74642-4 0 9995 2 42958 86.3990 34.7730 0002296 90.7190 269.4269 14.34219634451537 IRIDIUM 119 1 42959U 17061E 26145.10308741 .00000004 00000+0 -56858-5 0 9997 2 42959 86.3985 34.8984 0002238 84.9173 275.2278 14.34217458451500 IRIDIUM 107 1 42960U 17061F 26145.40118825 .00000062 00000+0 14966-4 0 9990 2 42960 86.3990 34.7951 0002300 78.4005 281.7449 14.34218130451558 IRIDIUM 132 1 42961U 17061G 26145.40752676 .00000158 00000+0 49200-4 0 9994 2 42961 86.3990 34.7722 0002274 84.8054 275.3402 14.34217499451555 IRIDIUM 136 1 42962U 17061H 26145.43924302 .00000075 00000+0 19752-4 0 9992 2 42962 86.3990 34.7654 0002291 84.3433 275.8024 14.34217262451570 IRIDIUM 139 1 42963U 17061J 26145.23628061 .00000063 00000+0 15349-4 0 9999 2 42963 86.3991 34.9118 0002141 82.2832 277.8606 14.34218163451550 IRIDIUM 125 1 42964U 17061K 26145.43290258 .00000073 00000+0 18844-4 0 9999 2 42964 86.3993 34.8903 0002719 81.9898 278.1606 14.34217702451599 IRIDIUM 135 1 43070U 17083A 26145.26749097 -.00000032 00000+0 -18576-4 0 9992 2 43070 86.3951 331.6017 0002059 89.1495 270.9937 14.34217161440860 IRIDIUM 138 1 43071U 17083B 26145.22309421 .00000066 00000+0 16551-4 0 9998 2 43071 86.3970 331.3123 0002440 91.7428 268.4047 14.34217708440845 IRIDIUM 116 1 43072U 17083C 26145.47045294 -.00000031 00000+0 -18269-4 0 9993 2 43072 86.3950 331.5031 0001765 83.3616 276.7780 14.34217741440910 IRIDIUM 130 1 43073U 17083D 26145.50850694 .00000048 00000+0 99428-5 0 9999 2 43073 86.3963 331.7601 0002122 83.0532 277.0905 14.34218007440865 IRIDIUM 151 1 43074U 17083E 26145.48313731 .00000060 00000+0 14308-4 0 9990 2 43074 86.3958 331.5550 0002112 89.2745 270.8693 14.34217813440885 IRIDIUM 134 1 43075U 17083F 26145.24211852 -.00000208 00000+0 -81275-4 0 9999 2 43075 86.3955 331.6637 0002075 85.3598 274.7835 14.34215626440815 IRIDIUM 137 1 43076U 17083G 26145.46410759 .00000058 00000+0 13672-4 0 9998 2 43076 86.3961 331.6631 0001729 94.3593 265.7800 14.34218301440913 IRIDIUM 141 1 43077U 17083H 26145.24846308 .00000064 00000+0 15772-4 0 9998 2 43077 86.3957 331.5852 0002235 90.2142 269.9309 14.34217743440886 IRIDIUM 153 1 43078U 17083J 26145.40994584 .00000229 00000+0 74680-4 0 9993 2 43078 86.3940 299.9979 0002367 92.4898 267.6569 14.34219441442011 IRIDIUM 131 1 43079U 17083K 26145.44508295 .00000059 00000+0 13858-4 0 9999 2 43079 86.3961 331.6873 0002178 90.8007 269.3438 14.34217895440840 IRIDIUM 144 1 43249U 18030A 26145.41628853 .00000208 00000+0 67209-4 0 9996 2 43249 86.3939 299.9249 0002058 90.6049 269.5383 14.34218249426870 IRIDIUM 149 1 43250U 18030B 26145.49240057 .00000037 00000+0 60874-5 0 9994 2 43250 86.3938 299.8603 0002217 94.0036 266.1414 14.34217840426903 IRIDIUM 157 1 43251U 18030C 26145.37189130 .00000032 00000+0 45102-5 0 9998 2 43251 86.3939 299.9635 0002168 91.9120 268.2324 14.34217723426864 IRIDIUM 140 1 43252U 18030D 26145.39091877 .00000213 00000+0 68863-4 0 9990 2 43252 86.3939 299.9681 0002171 90.3524 269.7920 14.34219103426920 IRIDIUM 145 1 43253U 18030E 26145.37823375 .00000210 00000+0 67929-4 0 9994 2 43253 86.3939 299.9457 0001882 87.6685 272.4726 14.34218858426850 IRIDIUM 146 1 43254U 18030F 26145.42897429 .00000127 00000+0 38122-4 0 9992 2 43254 86.3939 299.9367 0002060 90.7870 269.3562 14.34217987426878 IRIDIUM 148 1 43255U 18030G 26145.39726071 -.00000034 00000+0 -19154-4 0 9996 2 43255 86.3936 299.9930 0001990 95.0385 265.1038 14.34218046426905 IRIDIUM 142 1 43256U 18030H 26145.36555201 .00000220 00000+0 71601-4 0 9999 2 43256 86.3936 299.8959 0001977 89.3697 270.7726 14.34219281426866 IRIDIUM 150 1 43257U 18030J 26145.40360392 -.00000034 00000+0 -19249-4 0 9995 2 43257 86.3935 299.9957 0002051 90.9786 269.1645 14.34217630426897 IRIDIUM 143 1 43258U 18030K 26145.38457566 .00000100 00000+0 28791-4 0 9997 2 43258 86.3943 300.0952 0002077 89.8159 270.3275 14.34218410426828 IRIDIUM 161 1 43478U 18047C 26145.28981568 .00000289 00000+0 79790-4 0 9995 2 43478 86.4470 98.0444 0002403 92.0059 268.1417 14.43280905421833 IRIDIUM 152 1 43479U 18047D 26145.35729500 -.00000060 00000+0 -28660-4 0 9999 2 43479 86.3947 97.8773 0002278 87.4847 272.6610 14.34217324419216 IRIDIUM 147 1 43480U 18047E 26145.36363689 .00000053 00000+0 11906-4 0 9999 2 43480 86.3946 97.8792 0002185 84.2712 275.8733 14.34217885419214 IRIDIUM 110 1 43481U 18047F 26145.36998064 .00000085 00000+0 23348-4 0 9999 2 43481 86.3949 97.9678 0002499 92.6470 267.5012 14.34217957419201 IRIDIUM 162 1 43482U 18047G 26145.35284491 .00000276 00000+0 76167-4 0 9990 2 43482 86.4468 97.9093 0002462 84.7155 275.4327 14.43279767421838 IRIDIUM 160 1 43569U 18061A 26145.52512171 .00000023 00000+0 10521-5 0 9993 2 43569 86.3970 66.2707 0002249 87.2289 272.9164 14.34217373410127 IRIDIUM 166 1 43570U 18061B 26145.48072271 .00000105 00000+0 30274-4 0 9999 2 43570 86.3967 66.2400 0002151 82.3191 277.8249 14.34218107410141 IRIDIUM 158 1 43571U 18061C 26145.51876788 .00000218 00000+0 70802-4 0 9995 2 43571 86.3969 66.2340 0002340 84.5914 275.5549 14.34215181410118 IRIDIUM 165 1 43572U 18061D 26145.33484280 .00000041 00000+0 74038-5 0 9998 2 43572 86.3969 66.3570 0002122 82.2362 277.9075 14.34217961410113 IRIDIUM 155 1 43573U 18061E 26145.50609105 .00000100 00000+0 28530-4 0 9994 2 43573 86.3966 66.1555 0002337 81.7900 278.3561 14.34218909410109 IRIDIUM 154 1 43574U 18061F 26145.48706132 .00000187 00000+0 59686-4 0 9991 2 43574 86.3970 66.2960 0002119 83.2493 276.8944 14.34219780410159 IRIDIUM 163 1 43575U 18061G 26145.32850115 .00000044 00000+0 85999-5 0 9995 2 43575 86.3966 66.2781 0002370 85.4430 274.7036 14.34217948410108 IRIDIUM 156 1 43576U 18061H 26145.51243573 .00000033 00000+0 48829-5 0 9990 2 43576 86.3967 66.2086 0002281 80.1327 280.0126 14.34217912410129 IRIDIUM 164 1 43577U 18061J 26145.49341426 .00000228 00000+0 74302-4 0 9994 2 43577 86.3969 66.2566 0002057 84.6214 275.5216 14.34219964410162 IRIDIUM 159 1 43578U 18061K 26145.32215808 .00000032 00000+0 44795-5 0 9998 2 43578 86.3967 66.2654 0002300 86.7194 273.4265 14.34217948410105 IRIDIUM 180 1 43922U 19002A 26145.32165431 .00000025 00000+0 19564-5 0 9991 2 43922 86.3986 3.1573 0002237 89.0930 271.0522 14.34217730385719 IRIDIUM 176 1 43923U 19002B 26145.32184824 .00000650 00000+0 99260-4 0 9993 2 43923 86.6104 3.1041 0002243 87.4328 272.7146 14.72251369395882 IRIDIUM 168 1 43924U 19002C 26145.31531193 .00000061 00000+0 14791-4 0 9990 2 43924 86.3987 3.2366 0002165 87.2388 272.9056 14.34217871385695 IRIDIUM 173 1 43925U 19002D 26145.09332138 .00000043 00000+0 81981-5 0 9990 2 43925 86.3982 3.2191 0002281 86.3053 273.8403 14.34217821385641 IRIDIUM 169 1 43926U 19002E 26145.43795053 .00000244 00000+0 73169-4 0 9999 2 43926 86.4244 34.7025 0002625 73.6641 286.4846 14.38608510386952 IRIDIUM 172 1 43927U 19002F 26145.08697608 .00000087 00000+0 23858-4 0 9993 2 43927 86.3982 3.2296 0002236 88.9493 271.1959 14.34217223385659 IRIDIUM 175 1 43928U 19002G 26145.40182775 .00000292 00000+0 80239-4 0 9998 2 43928 86.4492 300.0495 0001593 338.2821 21.8313 14.43597965395690 IRIDIUM 171 1 43929U 19002H 26145.34702389 .00000086 00000+0 23665-4 0 9992 2 43929 86.3993 3.4246 0002119 83.4267 276.7170 14.34218202385686 IRIDIUM 170 1 43930U 19002J 26145.53192543 .00000629 00000+0 95811-4 0 9995 2 43930 86.6104 3.0189 0002383 90.0405 270.1086 14.72254397395927 IRIDIUM 167 1 43931U 19002K 26145.34068141 .00000068 00000+0 17278-4 0 9999 2 43931 86.3984 3.1459 0002061 78.3913 281.7514 14.34218043385680 IRIDIUM 181 1 56726U 23068S 26145.50507459 .00000298 00000+0 82471-4 0 9992 2 56726 86.4506 66.2700 0002151 90.0750 270.0698 14.43311116159167 IRIDIUM 177 1 56727U 23068T 26145.47320567 .00000851 00000+0 10850-3 0 9998 2 56727 86.1960 339.5828 0002572 85.6343 274.5171 14.80241204163005 IRIDIUM 174 1 56728U 23068U 26145.31564219 .00000753 00000+0 11557-3 0 9992 2 56728 86.6113 3.2544 0002609 87.4960 272.6555 14.72254973162650 IRIDIUM 178 1 56729U 23068V 26145.12432753 .00000815 00000+0 10383-3 0 9994 2 56729 86.6559 34.9967 0002391 88.7729 271.3766 14.80237220162958 IRIDIUM 179 1 56730U 23068W 26145.45696269 .00000923 00000+0 11808-3 0 9999 2 56730 86.6795 43.7695 0002359 81.9681 278.1808 14.80239679163003